Weather History for KJLN - December, 2012

Change the Weather History Date:

Monday, December 10, 2012

  Actual Average Record
Temperature  
Mean Temperature 26 °F 38 °F  
Max Temperature 32 °F 48 °F 74 °F (1996)
Min Temperature 19 °F 28 °F 0 °F (1995)
Degree Days  
Heating Degree Days 39 27  
Month to date heating degree days 153 253  
Since 1 July heating degree days 939 1010  
Cooling Degree Days 0 0  
Month to date cooling degree days 0 0  
Year to date cooling degree days 2106 1698  
Moisture  
Dew Point 16 °F    
Average Humidity 69    
Maximum Humidity 81    
Minimum Humidity 59    
Precipitation  
Precipitation T in 0.09 in 1.51 in (1985)
Month to date precipitation 0.78 1.02  
Year to date precipitation 37.74 44.75  
Snow  
Snow T in - - ()
Month to date snowfall T  
Snow Depth 0.00 in    
Sea Level Pressure  
Sea Level Pressure 30.10 in    
Wind  
Wind Speed 9 mph (WNW)    
Max Wind Speed 18 mph    
Max Gust Speed 25 mph    
Visibility 10 miles    
Events Snow    
T = Trace of Precipitation, MM = Missing Value Source: NWS Daily Summary

Daily Weather History Graph

Daily Weather History Graph

Search for Another Location

Airport or City:

Trip Planner

Search our weather history database for the weather conditions in past years. The results will help you decide how hot, cold, wet, or windy it might be!

Date:

Astronomy

Dec. 10, 2012 Rise Set
Actual Time 7:21 AM CST 5:00 PM CST
Civil Twilight 6:52 AM CST 5:29 PM CST
Nautical Twilight 6:19 AM CST 6:02 PM CST
Astronomical Twilight 5:48 AM CST 6:34 PM CST
Moon 4:08 AM CST (12/10) 2:48 PM CST (12/10)
Length of Visible Light 10h 37m
Length of Day
9h 39m
Waning Crescent, 10% of the Moon is Illuminated
Dec 10
Waning Crescent
Dec 13
New
Dec 19
First Quarter
Dec 28
Full
Jan 4
Last Quarter

Hourly Weather History & Observations

Time (CST) Temp. Windchill Dew Point Humidity Pressure Visibility Wind Dir Wind Speed Gust Speed Precip Events Conditions
12:53 AM 24.1 °F 14.4 °F 15.1 °F 69% 30.09 in 9.0 mi NW 9.2 mph - 0.00 in Snow Light Snow
1:53 AM 24.1 °F 11.5 °F 14.0 °F 65% 30.07 in 9.0 mi NW 15.0 mph 20.7 mph 0.00 in Snow Light Snow
2:53 AM 21.9 °F 9.2 °F 12.0 °F 66% 30.09 in 9.0 mi NNW 13.8 mph - 0.00 in Snow Light Snow
3:53 AM 23.0 °F 10.6 °F 12.9 °F 65% 30.08 in 9.0 mi NW 13.8 mph - 0.00 in Snow Light Snow
4:53 AM 23.0 °F 11.7 °F 12.9 °F 65% 30.07 in 9.0 mi NW 11.5 mph - 0.00 in Snow Light Snow
5:25 AM 23.0 °F 9.6 °F 14.0 °F 68% 30.07 in 9.0 mi NW 16.1 mph 21.9 mph 0.00 in Snow Light Snow
5:53 AM 24.1 °F 11.0 °F 14.0 °F 65% 30.09 in 9.0 mi NW 16.1 mph 20.7 mph 0.00 in Snow Light Snow
6:53 AM 23.0 °F 9.2 °F 16.0 °F 74% 30.12 in 9.0 mi NW 17.3 mph - 0.00 in Snow Light Snow
7:53 AM 21.9 °F 8.7 °F 15.1 °F 75% 30.14 in 9.0 mi NW 15.0 mph - 0.00 in Snow Light Snow
8:20 AM 21.2 °F 8.3 °F 15.8 °F 80% 30.12 in 9.0 mi NW 13.8 mph - 0.00 in Snow Light Snow
8:53 AM 21.9 °F 11.0 °F 15.1 °F 75% 30.15 in 9.0 mi NW 10.4 mph - 0.00 in Snow Light Snow
9:44 AM 23.0 °F 13.1 °F 15.8 °F 74% 30.10 in 9.0 mi NW 9.2 mph - 0.00 in   Overcast
9:53 AM 24.1 °F 13.7 °F 16.0 °F 71% 30.13 in 10.0 mi WNW 10.4 mph - 0.00 in   Mostly Cloudy
10:53 AM 27.0 °F 16.1 °F 17.1 °F 66% 30.14 in 10.0 mi WNW 12.7 mph - N/A   Clear
11:00 AM 26.6 °F 16.8 °F 17.6 °F 69% 30.11 in 9.0 mi NW 10.4 mph - N/A   Clear
11:53 AM 28.0 °F 18.6 °F 17.1 °F 63% 30.13 in 10.0 mi West 10.4 mph - N/A   Clear
12:53 PM 30.0 °F 20.5 °F 18.0 °F 61% 30.10 in 10.0 mi NW 11.5 mph 16.1 mph N/A   Partly Cloudy
1:53 PM 30.9 °F 24.3 °F 19.0 °F 61% 30.08 in 10.0 mi Variable 6.9 mph - 0.00 in   Clear
2:53 PM 32.0 °F 24.2 °F 19.0 °F 59% 30.08 in 10.0 mi WNW 9.2 mph - 0.00 in   Clear
3:53 PM 30.9 °F 23.5 °F 18.0 °F 59% 30.07 in 10.0 mi NW 8.1 mph - N/A   Clear
4:53 PM 28.0 °F 20.8 °F 17.1 °F 63% 30.09 in 10.0 mi WNW 6.9 mph - N/A   Clear
5:53 PM 26.1 °F 21.9 °F 17.1 °F 69% 30.10 in 10.0 mi SW 3.5 mph - N/A   Clear
6:53 PM 24.1 °F 19.7 °F 16.0 °F 71% 30.09 in 10.0 mi SSW 3.5 mph - N/A   Clear
7:53 PM 23.0 °F - 16.0 °F 74% 30.10 in 10.0 mi Calm Calm - N/A   Clear
8:53 PM 21.0 °F 14.6 °F 16.0 °F 81% 30.11 in 10.0 mi South 4.6 mph - N/A   Clear
9:53 PM 21.9 °F 17.2 °F 16.0 °F 78% 30.11 in 10.0 mi SSW 3.5 mph - N/A   Clear
10:53 PM 19.9 °F 13.4 °F 15.1 °F 81% 30.12 in 10.0 mi South 4.6 mph - N/A   Clear
11:53 PM 19.9 °F 11.1 °F 14.0 °F 78% 30.12 in 10.0 mi South 6.9 mph - N/A   Clear